Location: Bo?a Wola
(50.4192°N, 19.7966°E)
Time: 03:57:21
(UTC+00:00)

CZ-4C R/B - Pass Details

Date: 16 September 2024
Orbit: 519 x 1471 km, 63.4° (Epoch: 09 October)

Event Time Altitude Azimuth Distance (km) Brightness Sun altitude
Exits shadow 02:50:38 - 297° (WNW) 2,526 4.3 -14.4°
Reaches altitude 10° 02:51:08 10° 301° (WNW) 2,384 4.2 -14.3°
Maximum altitude 02:55:43 25° 356° (N) 1,779 4.1 -13.6°
Drops below altitude 10° 03:01:16 10° 50° (NE) 2,938 6.2 -12.8°
Sets 03:04:50 0° 63° (ENE) 4,075 7.7 -12.3°
